Location: Balagbag Mahabang Kahoy
(14.1562°N, 120.9200°E)
Time: 18:22:49
(UTC+00:00)

CZ-3A R/B - Pass Details

Date: 16 January 2026
Orbit: 308 x 35980 km, 24.6° (Epoch: 17 February)

Event Time Altitude Azimuth Distance (km) Brightness Sun altitude
Rises 11:06:39 0° 235° (SW) 13,808 10.3 -18.9°
Reaches altitude 10° 11:18:22 10° 230° (SW) 15,691 10.1 -21.6°
Drops below altitude 10° 18:27:13 10° 260° (W) 32,570 10.4 -55.8°
Enters shadow 19:51:52 - 271° (W) 20,061 9.2 -36.0°
Exits shadow 20:43:12 30° 293° (WNW) 5,152 6.1 -24.1°
Maximum altitude 20:51:17 46° 345° (NNW) 2,200 4.5 -22.2°
Sets 20:57:49 0° 70° (ENE) 2,912 6.3 -20.7°
